Back to catalog

STARLINK-37202

AliveCommunicationsSSO
NORAD 68731·PAYLOAD·🇺🇸 United States

Launched Apr 15, 2026 from Vandenberg Space Force Base

Loading…

Next Passes (next 24 hours)

TLE

FreshSource: CelesTrak SupGP

Epoch: Sep 14, 2026, 21:00 UTC

1 68731C 26082D   26257.87548611  .00008155  00000+0  25334-3 0  2570
2 68731  97.2847 120.0460 0001869  96.5471 119.7110 15.33410782    18

Track STARLINK-37202 in real time with AllMySat

Download on the App Store